• în România
  • Lista ţărilor
  • Pe 7 zile
  • Temperatura apei
  • Hartă satelitară
  • Meteo pe hartă
  • Widget-uri
  • user-avatar
    Intrare

    Meteo pe oră la Nekrasovskiy

    Astăzi, 19 Iulie, Joi

    Timp Temperatura Precipitaţii Vânt Presiune Umiditate
    00:00 +19°C° 0,1 mm 5 m/s 739 mmHg 92%
    01:00 +19°C° 0,1 mm 4 m/s 739 mmHg 93%
    02:00 +18°C° 0,1 mm 4 m/s 739 mmHg 94%
    03:00 +18°C° 0 mm 4 m/s 740 mmHg 96%
    04:00 +19°C° 0,2 mm 4 m/s 740 mmHg 94%
    05:00 +19°C° 0,2 mm 4 m/s 740 mmHg 93%
    06:00 +19°C° 0,2 mm 4 m/s 740 mmHg 92%
    07:00 +21°C° 0,1 mm 5 m/s 740 mmHg 88%
    08:00 +22°C° 0,1 mm 5 m/s 741 mmHg 84%
    09:00 +23°C° 0,1 mm 5 m/s 741 mmHg 80%
    10:00 +25°C° 0,1 mm 5 m/s 741 mmHg 76%
    11:00 +26°C° 0,1 mm 5 m/s 741 mmHg 71%
    12:00 +27°C° 0,1 mm 6 m/s 741 mmHg 67%
    13:00 +27°C° 0,2 mm 6 m/s 741 mmHg 66%
    14:00 +28°C° 0,2 mm 6 m/s 741 mmHg 65%
    15:00 +28°C° 0,2 mm 6 m/s 741 mmHg 64%
    16:00 +28°C° 0,7 mm 5 m/s 742 mmHg 69%
    17:00 +27°C° 0,7 mm 4 m/s 742 mmHg 73%
    18:00 +27°C° 0,7 mm 3 m/s 742 mmHg 77%
    19:00 +26°C° 0,2 mm 3 m/s 742 mmHg 80%
    20:00 +24°C° 0,2 mm 3 m/s 742 mmHg 82%
    21:00 +22°C° 0,2 mm 3 m/s 742 mmHg 85%
    22:00 +22°C° 0,2 mm 3 m/s 742 mmHg 86%
    23:00 +21°C° 0,2 mm 3 m/s 742 mmHg 88%

    Mâine, 20 Iulie, Vineri

    Timp Temperatura Precipitaţii Vânt Presiune Umiditate
    00:00 +21°C° 0,2 mm 2 m/s 742 mmHg 89%
    01:00 +20°C° 0,7 mm 3 m/s 742 mmHg 90%
    02:00 +20°C° 0,7 mm 3 m/s 743 mmHg 91%
    03:00 +20°C° 0,7 mm 3 m/s 743 mmHg 93%
    04:00 +20°C° 0 mm 3 m/s 743 mmHg 91%
    05:00 +20°C° 0 mm 3 m/s 743 mmHg 89%
    06:00 +21°C° 0 mm 3 m/s 743 mmHg 88%
    07:00 +22°C° 0 mm 3 m/s 743 mmHg 84%
    08:00 +25°C° 0 mm 3 m/s 743 mmHg 79%
    09:00 +26°C° 0 mm 4 m/s 743 mmHg 75%
    10:00 +27°C° 0,6 mm 3 m/s 743 mmHg 70%
    11:00 +28°C° 0,6 mm 3 m/s 743 mmHg 66%
    12:00 +29°C° 0,6 mm 3 m/s 743 mmHg 61%
    13:00 +29°C° 0,5 mm 3 m/s 743 mmHg 62%
    14:00 +29°C° 0,5 mm 4 m/s 743 mmHg 64%
    15:00 +29°C° 0,5 mm 5 m/s 743 mmHg 65%
    16:00 +28°C° 0,1 mm 4 m/s 743 mmHg 70%
    17:00 +27°C° 0,1 mm 4 m/s 743 mmHg 75%
    18:00 +27°C° 0,1 mm 3 m/s 743 mmHg 80%
    19:00 +25°C° 0,1 mm 3 m/s 743 mmHg 83%
    20:00 +24°C° 0,1 mm 3 m/s 743 mmHg 87%
    21:00 +22°C° 0,1 mm 3 m/s 743 mmHg 91%
    22:00 +21°C° 0 mm 3 m/s 743 mmHg 91%
    23:00 +21°C° 0 mm 3 m/s 743 mmHg 92%

    Poimâine, 21 Iulie, Sâmbătă

    Timp Temperatura Precipitaţii Vânt Presiune Umiditate
    00:00 +20°C° 0 mm 2 m/s 743 mmHg 92%
    01:00 +20°C° 0 mm 2 m/s 743 mmHg 92%
    02:00 +20°C° 0 mm 2 m/s 743 mmHg 92%
    03:00 +19°C° 0 mm 2 m/s 743 mmHg 93%
    04:00 +20°C° 0 mm 2 m/s 743 mmHg 92%
    05:00 +20°C° 0 mm 2 m/s 743 mmHg 91%
    06:00 +20°C° 0 mm 2 m/s 743 mmHg 90%
    07:00 +23°C° 0,1 mm 2 m/s 743 mmHg 84%
    08:00 +25°C° 0,1 mm 2 m/s 743 mmHg 79%
    09:00 +26°C° 0,1 mm 2 m/s 744 mmHg 73%
    10:00 +27°C° 0,2 mm 3 m/s 744 mmHg 68%
    11:00 +28°C° 0,2 mm 3 m/s 743 mmHg 63%
    12:00 +30°C° 0,2 mm 3 m/s 743 mmHg 58%
    13:00 +30°C° 0,6 mm 3 m/s 743 mmHg 59%
    14:00 +30°C° 0,6 mm 3 m/s 743 mmHg 60%
    15:00 +30°C° 0,6 mm 3 m/s 743 mmHg 61%
    16:00 +29°C° 0,7 mm 2 m/s 743 mmHg 64%
    17:00 +29°C° 0,7 mm 2 m/s 743 mmHg 68%
    18:00 +28°C° 0,7 mm 2 m/s 743 mmHg 72%
    19:00 +27°C° 0,1 mm 2 m/s 743 mmHg 76%
    20:00 +25°C° 0,1 mm 2 m/s 743 mmHg 80%
    21:00 +24°C° 0,1 mm 2 m/s 743 mmHg 84%
    22:00 +23°C° 0,2 mm 2 m/s 743 mmHg 85%
    23:00 +23°C° 0,2 mm 2 m/s 743 mmHg 86%

    22 Iulie, Duminică

    Timp Temperatura Precipitaţii Vânt Presiune Umiditate
    00:00 +22°C° 0,2 mm 1 m/s 743 mmHg 88%
    01:00 +21°C° 0,5 mm 2 m/s 743 mmHg 89%
    02:00 +21°C° 0,5 mm 2 m/s 743 mmHg 90%
    03:00 +20°C° 0,5 mm 2 m/s 743 mmHg 91%
    04:00 +21°C° 0 mm 2 m/s 743 mmHg 90%
    05:00 +22°C° 0 mm 1 m/s 743 mmHg 89%
    06:00 +23°C° 0 mm 1 m/s 743 mmHg 88%
    07:00 +24°C° 0,2 mm 1 m/s 743 mmHg 83%
    08:00 +26°C° 0,2 mm 1 m/s 743 mmHg 78%
    09:00 +27°C° 0,2 mm 1 m/s 743 mmHg 73%
    10:00 +28°C° 1,2 mm 2 m/s 743 mmHg 70%
    11:00 +29°C° 1,2 mm 2 m/s 743 mmHg 66%
    12:00 +30°C° 1,2 mm 3 m/s 743 mmHg 62%
    13:00 +30°C° 1,3 mm 2 m/s 743 mmHg 62%
    14:00 +30°C° 1,3 mm 2 m/s 743 mmHg 62%
    15:00 +30°C° 1,3 mm 2 m/s 742 mmHg 63%
    16:00 +30°C° 0,1 mm 2 m/s 742 mmHg 65%
    17:00 +30°C° 0,1 mm 1 m/s 742 mmHg 68%
    18:00 +30°C° 0,1 mm 1 m/s 742 mmHg 70%
    19:00 +28°C° 0,7 mm 1 m/s 743 mmHg 74%
    20:00 +26°C° 0,7 mm 2 m/s 743 mmHg 79%
    21:00 +25°C° 0,7 mm 2 m/s 743 mmHg 83%
    22:00 +24°C° 0,4 mm 2 m/s 743 mmHg 85%
    23:00 +24°C° 0,4 mm 2 m/s 743 mmHg 87%

    23 Iulie, Luni

    Timp Temperatura Precipitaţii Vânt Presiune Umiditate
    00:00 +23°C° 0,4 mm 2 m/s 743 mmHg 88%
    01:00 +23°C° 0 mm 2 m/s 743 mmHg 90%
    02:00 +21°C° 0 mm 2 m/s 743 mmHg 91%
    03:00 +21°C° 0 mm 2 m/s 743 mmHg 92%
    04:00 +21°C° 0 mm 2 m/s 743 mmHg 92%
    05:00 +23°C° 0 mm 2 m/s 743 mmHg 91%
    06:00 +23°C° 0 mm 2 m/s 743 mmHg 91%
    07:00 +24°C° 0,3 mm 2 m/s 743 mmHg 86%
    08:00 +26°C° 0,3 mm 2 m/s 743 mmHg 82%
    09:00 +27°C° 0,3 mm 2 m/s 743 mmHg 77%
    10:00 +28°C° 0,8 mm 2 m/s 743 mmHg 73%
    11:00 +29°C° 0,8 mm 3 m/s 743 mmHg 69%
    12:00 +30°C° 0,8 mm 3 m/s 743 mmHg 64%
    13:00 +30°C° 2 mm 3 m/s 743 mmHg 65%
    14:00 +29°C° 2 mm 2 m/s 743 mmHg 66%
    15:00 +29°C° 2 mm 2 m/s 743 mmHg 66%
    16:00 +28°C° 1,7 mm 2 m/s 743 mmHg 72%
    17:00 +27°C° 1,7 mm 3 m/s 743 mmHg 77%
    18:00 +26°C° 1,7 mm 3 m/s 743 mmHg 83%
    19:00 +26°C° 0,1 mm 3 m/s 743 mmHg 85%
    20:00 +25°C° 0,1 mm 3 m/s 744 mmHg 87%
    21:00 +24°C° 0,1 mm 3 m/s 744 mmHg 89%
    22:00 +22°C° 0 mm 3 m/s 744 mmHg 90%
    23:00 +23°C° 0 mm 2 m/s 744 mmHg 91%

    24 Iulie, Marţi

    Timp Temperatura Precipitaţii Vânt Presiune Umiditate
    00:00 +21°C° 0 mm 2 m/s 744 mmHg 92%
    01:00 +21°C° 0 mm 2 m/s 744 mmHg 93%
    02:00 +21°C° 0 mm 2 m/s 744 mmHg 93%
    03:00 +21°C° 0 mm 2 m/s 744 mmHg 94%
    04:00 +21°C° 0 mm 2 m/s 745 mmHg 93%
    05:00 +21°C° 0 mm 2 m/s 745 mmHg 92%
    06:00 +21°C° 0 mm 2 m/s 745 mmHg 91%
    07:00 +24°C° 0,1 mm 2 m/s 745 mmHg 87%
    08:00 +25°C° 0,1 mm 2 m/s 745 mmHg 82%
    09:00 +27°C° 0,1 mm 2 m/s 746 mmHg 77%
    10:00 +28°C° 1,1 mm 3 m/s 746 mmHg 73%
    11:00 +28°C° 1,1 mm 3 m/s 746 mmHg 69%
    12:00 +29°C° 1,1 mm 3 m/s 746 mmHg 65%
    13:00 +29°C° 1,2 mm 3 m/s 746 mmHg 68%
    14:00 +28°C° 1,2 mm 4 m/s 746 mmHg 72%
    15:00 +27°C° 1,2 mm 4 m/s 746 mmHg 75%
    16:00 +27°C° 0,1 mm 3 m/s 747 mmHg 77%
    17:00 +27°C° 0,1 mm 3 m/s 747 mmHg 80%
    18:00 +26°C° 0,1 mm 3 m/s 747 mmHg 82%
    19:00 +25°C° 0,1 mm 3 m/s 747 mmHg 84%
    20:00 +25°C° 0,1 mm 2 m/s 747 mmHg 86%
    21:00 +24°C° 0,1 mm 2 m/s 747 mmHg 87%
    22:00 +23°C° 0 mm 2 m/s 747 mmHg 87%
    23:00 +23°C° 0 mm 2 m/s 747 mmHg 87%
    Arată mai mult